Location: Unspecified
(58.9933°N, 5.6375°E)
Time: 22:27:07
(UTC+02:00)

CZ-3 Stage 3 - Visible Passes

Search period start: 28 June 2016 00:00
Search period end: 08 July 2016 00:00
Orbit: 446 x 34757 km, 30.4° (Epoch: 28 June)

Date Brightness Start Highest point End Pass type
(mag) Time Alt. Az. Time Alt. Az. Time Alt. Az.
28 Jun 5.4 00:46:19 10° WSW 01:06:05 17° SSW 01:13:02 10° S visible
01 Jul 5.4 00:36:27 10° WSW 00:57:28 18° SSW 01:04:36 10° S visible
04 Jul 5.4 00:26:31 10° WSW 00:48:52 18° SSW 00:56:09 10° S visible
07 Jul 5.4 00:16:34 10° WSW 00:40:13 19° SSW 00:47:42 10° S visible
